Regional Weather Roundup
Issued by NWS

Home | Current Version | Previous Version | Text Only | Print | Product List | Glossary Off
Versions: 1 2 3 4 5 6 7 8 9 10 11 12 13 14 15 16 17 18 19 20 21 22 23 24 25 26 27 28 29 30 31 32 33 34 35 36 37 38 39 40 41 42 43 44 45 46 47 48 49 50

000
ASUS43 KBIS 251659
RWRND

NORTH DAKOTA REGIONAL WEATHER ROUNDUP
NATIONAL WEATHER SERVICE BISMARCK ND
1100 AM CST TUE NOV 25 2014

NOTE: "FAIR" INDICATES FEW OR NO CLOUDS BELOW 12,000 FEET WITH NO
SIGNIFICANT WEATHER AND/OR OBSTRUCTIONS TO VISIBILITY.


NDZ001>003-009>011-017-251800-
NORTHWEST NORTH DAKOTA

CITY           SKY/WX    TMP DP  RH WIND       PRES   REMARKS
WILLISTON      CLOUDY    31  28  89 S8        29.69S
MINOT          LGT SNOW  28  24  85 SE13      29.75F VSB 3/4 WCI  17
MINOT AFB      LGT SNOW  27  27 100 SE12      29.75F FOG     WCI  16
$$

NDZ018>021-031>035-040>046-251800-
SOUTHWEST NORTH DAKOTA

CITY           SKY/WX    TMP DP  RH WIND       PRES   REMARKS
BISMARCK       LGT SNOW  30  25  81 SE13      29.82F WCI  20
DICKINSON      LGT SNOW  32  30  92 S10       29.68F VSB 1
GARRISON         N/A     30  28  92 S10       29.75F
HETTINGER ARPT LGT SNOW  31  29  92 S12       29.74F VSB 3/4
$$

NDZ004>008-012>016-024-026-027-054-251800-
NORTHEAST NORTH DAKOTA

CITY           SKY/WX    TMP DP  RH WIND       PRES   REMARKS
GRAND FORKS    CLOUDY    20  13  74 SE5       29.97R WCI  13
GRND FRKS AFB  FLURRIES  19  16  86 E6        29.96R WCI  11
DEVILS LAKE    CLOUDY    23  12  63 E8        29.88R WCI  14
$$

NDZ022-023-025-028>030-036>039-047>053-251800-
SOUTHEAST NORTH DAKOTA

CITY           SKY/WX    TMP DP  RH WIND       PRES   REMARKS
FARGO          CLOUDY    23  16  74 SE6       29.97R WCI  16
JAMESTOWN      CLOUDY    28  22  78 SE7       29.88S
$$



USA.gov is the U.S. government's official web portal to all federal, state and local government web resources and services.